This is the latest recevied weather packets stored in our database for station/object IZ5MMH-1. If no packets are shown the sender has not sent any weather packets the latest 10 day(s).
| Time | Temp. | Humidity | Pressure | Rain* | Wind** | Luminosity | Snow |
|---|---|---|---|---|---|---|---|
| 1788146708 | 67° F | 73% | 762.3 mmHg | - | - | - | - |
| 1788146107 | 67° F | 73% | 762.3 mmHg | - | - | - | - |
| 1788145507 | 67° F | 73% | 762.1 mmHg | - | - | - | - |
| 1788144907 | 67° F | 72% | 762.2 mmHg | - | - | - | - |
| 1788144307 | 67° F | 71% | 762.3 mmHg | - | - | - | - |
| 1788143707 | 67° F | 70% | 762.2 mmHg | - | - | - | - |
| 1788143107 | 67° F | 70% | 762.2 mmHg | - | - | - | - |
| 1788142507 | 67° F | 72% | 762.2 mmHg | - | - | - | - |
| 1788141906 | 67° F | 73% | 762.2 mmHg | - | - | - | - |
| 1788141306 | 67° F | 70% | 762.3 mmHg | - | - | - | - |
| 1788140706 | 68° F | 71% | 762.2 mmHg | - | - | - | - |
| 1788140106 | 68° F | 73% | 762.3 mmHg | - | - | - | - |
| 1788139506 | 68° F | 71% | 762.4 mmHg | - | - | - | - |
| 1788138906 | 68° F | 70% | 762.3 mmHg | - | - | - | - |
| 1788138306 | 68° F | 69% | 762.3 mmHg | - | - | - | - |
| 1788137706 | 68° F | 69% | 762.4 mmHg | - | - | - | - |
| 1788137106 | 68° F | 69% | 762.4 mmHg | - | - | - | - |
| 1788136506 | 68° F | 68% | 762.4 mmHg | - | - | - | - |
| 1788135906 | 68° F | 69% | 762.4 mmHg | - | - | - | - |
| 1788135307 | 68° F | 70% | 762.5 mmHg | - | - | - | - |
| 1788134707 | 68° F | 68% | 762.4 mmHg | - | - | - | - |
| 1788134107 | 68° F | 69% | 762.4 mmHg | - | - | - | - |
| 1788133507 | 69° F | 66% | 762.4 mmHg | - | - | - | - |
| 1788132907 | 69° F | 67% | 762.4 mmHg | - | - | - | - |
| 1788132307 | 69° F | 67% | 762.4 mmHg | - | - | - | - |
* Rain since midnight (hover to see other rain measurements)
** Current wind speed in m/s (hover to see current wind gust speed)